Location: ??
(35.5672°N, 139.6509°E)
Time: 11:40:08
(UTC+00:00)

Cosmos 1844 - Pass Details

Date: 03 August 2024
Orbit: 824 x 865 km, 70.9° (Epoch: 08 September)

Event Time Altitude Azimuth Distance (km) Brightness Sun altitude
Rises 16:44:38 0° 341° (NNW) 3,391 7.3 -30.4°
Reaches altitude 10° 16:47:06 10° 344° (NNW) 2,448 6.5 -30.1°
Maximum altitude 16:52:41 67° 67° (ENE) 897 3.9 -29.4°
Enters shadow 16:52:59 65° 87° (E) 905 3.8 -29.4°
